Location: Newark
(9.4667°S, 159.8167°E)
Time: 10:47:40
(UTC+00:00)

Courier 1B Rocket - Pass Details

Date: 22 November 2019
Orbit: 921 x 1202 km, 28.2° (Epoch: 14 December)

Event Time Altitude Azimuth Distance (km) Brightness Sun altitude
Rises 19:50:27 0° 231° (SW) 3,683 7.7 13.4°
Reaches altitude 10° 19:53:28 10° 221° (SW) 2,695 7.1 14.1°
Maximum altitude 19:59:11 32° 159° (SSE) 1,536 6.8 15.4°
Drops below altitude 10° 20:04:42 10° 96° (E) 2,609 9.3 16.7°
Sets 20:07:34 0° 86° (E) 3,548 9.2 17.4°
